This is the latest recevied weather packets stored in our database for station/object EA6AMI-5. If no packets are shown the sender has not sent any weather packets the latest 10 day(s).
| Time | Temp. | Humidity | Pressure | Rain* | Wind** | Luminosity | Snow |
|---|---|---|---|---|---|---|---|
| 1777929483 | 16.11° C | 91% | 1013.9 hPa | 0 mm | - | 0 W/m² | - |
| 1777928943 | 16.67° C | 91% | 1013.8 hPa | 0 mm | - | 0 W/m² | - |
| 1777928403 | 16.67° C | 91% | 1013.8 hPa | 0 mm | - | 0 W/m² | - |
| 1777928043 | 16.67° C | 91% | 1013.9 hPa | 0 mm | - | 0 W/m² | - |
| 1777927504 | 16.67° C | 90% | 1013.7 hPa | 0 mm | - | 0 W/m² | - |
| 1777926963 | 16.67° C | 90% | 1013.7 hPa | 0 mm | - | 0 W/m² | - |
| 1777925883 | 16.67° C | 90% | 1013.5 hPa | 0 mm | - | 0 W/m² | - |
| 1777925343 | 16.67° C | 90% | 1013.5 hPa | 0 mm | - | 0 W/m² | - |
| 1777924803 | 16.67° C | 90% | 1013.3 hPa | 0 mm | - | 0 W/m² | - |
| 1777924443 | 16.67° C | 90% | 1013.4 hPa | 0 mm | - | 0 W/m² | - |
| 1777923904 | 17.22° C | 90% | 1013.3 hPa | 0 mm | - | 0 W/m² | - |
| 1777923363 | 17.22° C | 90% | 1013 hPa | 0 mm | - | 0 W/m² | - |
| 1777922823 | 17.22° C | 89% | 1013.1 hPa | 0 mm | - | 0 W/m² | - |
| 1777922284 | 17.22° C | 89% | 1012.9 hPa | 0 mm | - | 0 W/m² | - |
| 1777921743 | 17.22° C | 89% | 1012.8 hPa | 0 mm | - | 0 W/m² | - |
| 1777921203 | 17.22° C | 89% | 1012.7 hPa | 0 mm | - | 0 W/m² | - |
| 1777920844 | 17.22° C | 89% | 1012.6 hPa | 0 mm | - | 0 W/m² | - |
| 1777920304 | 17.22° C | 89% | 1012.5 hPa | 0 mm | - | 1 W/m² | - |
| 1777919764 | 17.22° C | 88% | 1012.5 hPa | 0 mm | - | 4 W/m² | - |
| 1777919223 | 17.22° C | 88% | 1012.6 hPa | 0 mm | - | 7 W/m² | - |
| 1777918683 | 17.22° C | 88% | 1012.4 hPa | 0 mm | - | 6 W/m² | - |
| 1777918143 | 17.22° C | 88% | 1012.4 hPa | 0 mm | - | 9 W/m² | - |
| 1777917603 | 17.78° C | 87% | 1012.4 hPa | 0 mm | - | 15 W/m² | - |
| 1777917244 | 17.78° C | 87% | 1012.4 hPa | 0 mm | - | 11 W/m² | - |
| 1777916703 | 17.78° C | 86% | 1012.3 hPa | 0 mm | - | 18 W/m² | - |
* Rain latest hour (hover to see other rain measurements)
** Current wind speed in m/s (hover to see current wind gust speed)